Weather History for KSLB - January, 2012

Change the Weather History Date:

Wednesday, January 18, 2012

  Actual Average Record
Temperature  
Mean Temperature 14 °F -  
Max Temperature 29 °F 26 °F 46 °F (2013)
Min Temperature -2 °F 10 °F -11 °F (1997)
Degree Days  
Heating Degree Days 52    
Moisture  
Dew Point 8 °F    
Average Humidity 75    
Maximum Humidity 88    
Minimum Humidity 54    
Precipitation  
Precipitation 0.00 in - - ()
Sea Level Pressure  
Sea Level Pressure 29.91 in    
Wind  
Wind Speed 14 mph (SW)    
Max Wind Speed 28 mph    
Max Gust Speed 32 mph    
Visibility 10 miles    
Events      
Averages and records for this station are not official NWS values.
T = Trace of Precipitation, MM = Missing Value Source: NWS Daily Summary

Daily Weather History Graph

Daily Weather History Graph

Search for Another Location

Airport or City:

Trip Planner

Search our weather history database for the weather conditions in past years. The results will help you decide how hot, cold, wet, or windy it might be!

Date:

Astronomy

Jan. 18, 2012 Rise Set
Actual Time 7:46 AM CST 5:16 PM CST
Civil Twilight 7:15 AM CST 5:47 PM CST
Nautical Twilight 6:41 AM CST 6:21 PM CST
Astronomical Twilight 6:07 AM CST 6:55 PM CST
Moon 3:18 AM CST (1/18) 12:54 PM CST (1/18)
Length of Visible Light 10h 31m
Length of Day
9h 29m
Waning Crescent, 24% of the Moon is Illuminated
Jan 18
Waning Crescent
Jan 23
New
Jan 30
First Quarter
Feb 7
Full
Feb 14
Last Quarter

Hourly Weather History & Observations

Time (CST) Temp. Windchill Dew Point Humidity Pressure Visibility Wind Dir Wind Speed Gust Speed Precip Events Conditions
12:15 AM -0.4 °F -15.7 °F -3.3 °F 88% 30.21 in 10.0 mi SSW 9.2 mph - N/A   Clear
12:35 AM -1.1 °F -15.5 °F -4.2 °F 87% 30.21 in 10.0 mi South 8.1 mph - N/A   Clear
12:55 AM -2.6 °F -20.3 °F -5.4 °F 87% 30.20 in 10.0 mi South 11.5 mph - N/A   Clear
1:15 AM -1.7 °F -19.2 °F -4.5 °F 88% 30.18 in 10.0 mi South 11.5 mph - N/A   Clear
1:55 AM -1.3 °F -17.8 °F -4.5 °F 86% 30.16 in 10.0 mi South 10.4 mph - N/A   Clear
2:15 AM -2.2 °F -18.9 °F -5.3 °F 87% 30.15 in 10.0 mi South 10.4 mph - N/A   Clear
2:35 AM -0.6 °F -16.9 °F -3.8 °F 86% 30.14 in 10.0 mi South 10.4 mph - N/A   Clear
2:55 AM 0.1 °F -16.9 °F -3.1 °F 86% 30.14 in 10.0 mi South 11.5 mph - N/A   Clear
3:35 AM 2.1 °F -16.0 °F -1.1 °F 86% 30.10 in 10.0 mi South 13.8 mph - N/A   Clear
3:55 AM 1.9 °F -14.7 °F -1.5 °F 86% 30.09 in 10.0 mi South 11.5 mph - N/A   Clear
4:15 AM 1.0 °F -15.8 °F -2.2 °F 86% 30.07 in 10.0 mi South 11.5 mph - N/A   Clear
4:35 AM 3.6 °F -13.4 °F 0.7 °F 88% 30.06 in 10.0 mi South 12.7 mph - N/A   Mostly Cloudy
4:55 AM 4.3 °F -13.2 °F 1.2 °F 87% 30.04 in 10.0 mi South 13.8 mph - N/A   Mostly Cloudy
5:15 AM 4.8 °F -12.5 °F 1.4 °F 86% 30.02 in 10.0 mi South 13.8 mph - N/A   Scattered Clouds
5:35 AM 6.1 °F -11.6 °F 2.7 °F 86% 30.01 in 10.0 mi South 15.0 mph - N/A   Clear
5:55 AM 8.2 °F -8.8 °F 4.3 °F 84% 30.00 in 10.0 mi South 15.0 mph - N/A   Clear
6:15 AM 7.9 °F -8.6 °F 4.1 °F 85% 29.99 in 10.0 mi South 13.8 mph - N/A   Clear
6:35 AM 9.1 °F -8.2 °F 5.0 °F 83% 29.97 in 10.0 mi South 16.1 mph 23.0 mph N/A   Clear
6:55 AM 10.2 °F -8.4 °F 5.5 °F 81% 29.96 in 10.0 mi South 19.6 mph 26.5 mph N/A   Clear
7:15 AM 10.4 °F -5.4 °F 5.7 °F 81% 29.96 in 10.0 mi South 13.8 mph - N/A   Clear
7:35 AM 9.9 °F -4.0 °F 5.5 °F 83% 29.94 in 10.0 mi South 10.4 mph - N/A   Clear
7:55 AM 9.3 °F -3.8 °F 5.2 °F 83% 29.94 in 10.0 mi South 9.2 mph - N/A   Clear
8:15 AM 10.6 °F -5.2 °F 5.9 °F 81% 29.93 in 10.0 mi South 13.8 mph - N/A   Clear
8:35 AM 11.5 °F -5.2 °F 6.4 °F 80% 29.93 in 10.0 mi South 16.1 mph - N/A   Clear
8:55 AM 12.9 °F -4.9 °F 7.3 °F 78% 29.92 in 10.0 mi South 19.6 mph 25.3 mph N/A   Clear
9:15 AM 13.6 °F -4.4 °F 7.9 °F 78% 29.91 in 10.0 mi SSW 20.7 mph 25.3 mph N/A   Clear
9:35 AM 14.5 °F -0.7 °F 8.6 °F 77% 29.91 in 10.0 mi SSW 15.0 mph 24.2 mph N/A   Clear
9:55 AM 16.0 °F -2.5 °F 9.5 °F 76% 29.91 in 10.0 mi SSW 24.2 mph - N/A   Clear
10:15 AM 16.7 °F 0.1 °F 10.4 °F 76% 29.89 in 10.0 mi SSW 19.6 mph 32.2 mph N/A   Clear
10:35 AM 18.1 °F 1.2 °F 11.7 °F 76% 29.87 in 10.0 mi SW 21.9 mph 28.8 mph N/A   Clear
10:55 AM 19.2 °F 2.2 °F 12.0 °F 74% 29.86 in 10.0 mi SW 23.0 mph 28.8 mph N/A   Clear
11:15 AM 20.5 °F 2.6 °F 12.0 °F 70% 29.84 in 10.0 mi SW 27.6 mph 31.1 mph N/A   Clear
11:35 AM 21.4 °F 5.1 °F 12.7 °F 69% 29.84 in 10.0 mi SW 23.0 mph 29.9 mph N/A   Clear
11:55 AM 21.9 °F 5.5 °F 12.7 °F 68% 29.82 in 10.0 mi SW 24.2 mph 32.2 mph N/A   Clear
12:15 PM 21.2 °F 4.5 °F 12.2 °F 68% 29.81 in 10.0 mi WSW 24.2 mph 27.6 mph N/A   Clear
12:35 PM 21.2 °F 6.0 °F 12.7 °F 70% 29.79 in 10.0 mi WSW 19.6 mph 26.5 mph N/A   Clear
12:55 PM 23.7 °F 7.9 °F 13.8 °F 66% 29.78 in 10.0 mi WSW 24.2 mph 29.9 mph N/A   Clear
1:35 PM 25.7 °F 12.3 °F 14.5 °F 63% 29.76 in 10.0 mi WSW 18.4 mph 24.2 mph N/A   Clear
1:55 PM 26.4 °F 12.8 °F 14.7 °F 61% 29.76 in 10.0 mi WSW 19.6 mph 24.2 mph N/A   Clear
2:15 PM 26.6 °F 13.4 °F 14.7 °F 61% 29.75 in 10.0 mi WSW 18.4 mph 21.9 mph N/A   Clear
2:35 PM 26.8 °F 15.4 °F 14.4 °F 60% 29.74 in 10.0 mi SW 13.8 mph 21.9 mph N/A   Clear
2:55 PM 29.1 °F 17.5 °F 15.3 °F 56% 29.73 in 10.0 mi SW 16.1 mph - N/A   Clear
3:15 PM 29.3 °F 17.3 °F 15.1 °F 55% 29.73 in 10.0 mi SW 17.3 mph - N/A   Clear
3:35 PM 29.8 °F 16.6 °F 14.9 °F 54% 29.73 in 10.0 mi WSW 21.9 mph - N/A   Clear
3:55 PM 29.8 °F 19.8 °F 15.1 °F 54% 29.73 in 10.0 mi WSW 12.7 mph - N/A   Clear
4:15 PM 29.7 °F 21.3 °F 15.6 °F 56% 29.72 in 10.0 mi WSW 9.2 mph - N/A   Clear
4:35 PM 28.6 °F 21.5 °F 15.6 °F 58% 29.74 in 10.0 mi West 6.9 mph - N/A   Clear
4:55 PM 27.9 °F 20.6 °F 15.8 °F 61% 29.75 in 10.0 mi West 6.9 mph - N/A   Clear
5:15 PM 25.7 °F 15.7 °F 16.5 °F 68% 29.77 in 10.0 mi WNW 10.4 mph - N/A   Clear
5:35 PM 27.9 °F 18.4 °F 17.2 °F 64% 29.77 in 10.0 mi WNW 10.4 mph - N/A   Mostly Cloudy
5:55 PM 27.3 °F 16.6 °F 17.6 °F 67% 29.77 in 10.0 mi WNW 12.7 mph - N/A   Overcast
6:15 PM 27.5 °F 15.0 °F 17.6 °F 66% 29.78 in 10.0 mi NW 17.3 mph - N/A   Overcast
6:35 PM 26.1 °F 12.3 °F 15.8 °F 65% 29.80 in 10.0 mi NNW 19.6 mph 31.1 mph N/A   Overcast
6:55 PM 23.0 °F 10.6 °F 14.7 °F 71% 29.80 in 10.0 mi NNW 13.8 mph - N/A   Overcast
7:15 PM 20.3 °F 6.6 °F 15.8 °F 83% 29.80 in 10.0 mi NNW 15.0 mph - N/A   Scattered Clouds
7:35 PM 18.9 °F 4.8 °F 15.8 °F 88% 29.82 in 10.0 mi NNW 15.0 mph - N/A   Mostly Cloudy
7:55 PM 17.6 °F 2.2 °F 13.8 °F 85% 29.84 in 10.0 mi NW 17.3 mph 21.9 mph N/A   Overcast
8:15 PM 16.5 °F -1.4 °F 12.0 °F 82% 29.85 in 7.0 mi NNW 23.0 mph 27.6 mph N/A   Overcast
8:35 PM 14.9 °F -3.1 °F 9.7 °F 80% 29.87 in 10.0 mi NNW 21.9 mph - N/A   Overcast
8:55 PM 13.1 °F -2.6 °F 7.7 °F 79% 29.87 in 10.0 mi NNW 15.0 mph - N/A   Mostly Cloudy
9:15 PM 10.6 °F -6.9 °F 3.6 °F 73% 29.90 in 10.0 mi NNW 17.3 mph 21.9 mph N/A   Mostly Cloudy
9:35 PM 9.5 °F -6.6 °F 3.0 °F 75% 29.90 in 10.0 mi NNW 13.8 mph 18.4 mph N/A   Overcast
9:55 PM 8.6 °F -7.7 °F 1.8 °F 74% 29.90 in 10.0 mi NNW 13.8 mph - N/A   Overcast
10:15 PM 7.7 °F -11.7 °F 1.0 °F 74% 29.91 in 10.0 mi NNW 19.6 mph 23.0 mph N/A   Overcast
10:35 PM 7.3 °F -11.1 °F -0.2 °F 71% 29.92 in 10.0 mi NNW 17.3 mph 20.7 mph N/A   Overcast
10:55 PM 6.8 °F -12.9 °F -0.8 °F 71% 29.91 in 10.0 mi North 19.6 mph - N/A   Overcast
11:15 PM 5.5 °F -12.9 °F -2.4 °F 70% 29.92 in 10.0 mi North 16.1 mph - N/A   Overcast
11:35 PM 4.5 °F -16.4 °F -4.0 °F 68% 29.93 in 10.0 mi North 20.7 mph 24.2 mph N/A   Overcast
11:55 PM 3.0 °F -16.7 °F -5.8 °F 67% 29.96 in 10.0 mi North 17.3 mph 23.0 mph N/A   Overcast